Notices

What's New in latest Release from April 7th, 2021:

- Updated Glossary, including Speed of Maximum Gust, and Total Hourly Precipitation

- Updated national and regional climate services offices contacts and prices information

- Addition of station inventory lists for 1981-2010, 1971-2000, and 1961-1990 Normals.

If you haven't already, please take our survey and provide feedback about our website: https://eccc.sondage-survey.ca/f/LanguageSelection.aspx?s=442ca660-fcf1-47c0-95a9-59707d6fd709

Hourly Data Report for October 22, 2019

SAINT JOHN A
NEW BRUNSWICK
Current Station Operator: NAVCAN

45°18'58.000" N
65°53'24.000" W
108.80 m
8104901
71609
YSJ

Download Data

Hourly Data (October 2019)
Hourly Data Report for October 22, 2019
TIME
LST
Temp Definition
°C
Dew Point Definition
°C
Rel Hum Definition
%
Precip. Amount Definition
mm

Wind Dir Definition
10's deg

Wind Spd Definition
km/h
Visibility Definition
km
Stn Press Definition
kPa
Hmdx Definition


Wind Chill Definition


Weather Definition


00:00 1.5 1.5 100   2 5 24.1 100.92     LegendNANA
01:00 2.1 2.1 100   36 2 24.1 100.97     LegendNANA
02:00 0.8 0.8 100   3 5 24.1 100.96     Clear
03:00 0.3 0.3 100   1 3 24.1 100.97     LegendNANA
04:00 0.0 0.0 100   5 4 24.1 101.00   -1 LegendNANA
05:00 0.6 0.6 100   5 6 24.1 101.06     Clear
06:00 1.4 1.4 100   6 6 24.1 101.10     LegendNANA
07:00 1.2 1.2 100   36 2 24.1 101.13     LegendNANA
08:00 3.9 3.9 100   2 4 24.1 101.14     Mostly Cloudy
09:00 8.2 7.0 92   3 6 24.1 101.20     LegendNANA
10:00 10.7 5.2 69   8 17 24.1 101.15     LegendNANA
11:00 12.0 3.1 54   8 24 24.1 101.11     Mostly Cloudy
12:00 11.7 4.1 60   8 26 24.1 101.10     LegendNANA
13:00 11.8 5.1 63   11 15 24.1 101.07     LegendNANA
14:00 12.1 5.1 62   8 17 24.1 101.00     Mostly Cloudy
15:00 12.6 5.8 63   9 14 24.1 101.06     LegendNANA
16:00 12.2 5.7 64   8 17 24.1 101.07     LegendNANA
17:00 11.2 5.9 70   7 16 24.1 101.04     Mostly Cloudy
18:00 10.2 5.5 72   7 8 24.1 101.07     LegendNANA
19:00 9.1 4.9 75   6 9 24.1 101.08     LegendNANA
20:00 9.6 5.4 75   8 16 24.1 101.04     Mostly Cloudy
21:00 9.7 6.5 81   7 18 24.1 101.03     LegendNANA
22:00 9.6 7.0 84   10 12 24.1 101.04     LegendNANA
23:00 9.4 6.5 82   13 13 24.1 100.99     Cloudy

Notes on Data Quality.

Legend

  • E = Estimated
  • M = Missing
  • NA = Not Available*
  • [empty] = Indicates an unobserved value
Date modified: